QPF
0.00 0.00 0.00 0.00 0.00 0.00 0.00 0.00 0.00 0.00 0.00 0.00 0.00 0.00 0.00 0.00 0.00 0.00 0.00 0.00 0.00 0.00 0.00 0.00 0.00 0.00 0.00 0.00 0.00 0.00 0.00 0.00 0.00 0.00 0.00 0.00 0.00 0.00 0.00 0.00 0.00 0.00 0.00 0.00 0.00 0.00 0.00 0.00 0.00 0.00 0.00 0.00 0.00 0.00 0.00 0.00 0.00 0.01 0.03 0.04 0.03 0.03 0.04 0.06 0.07 0.09 0.11 0.13 0.13
0.00 0.00 0.00 0.00 0.00 0.00 0.00 0.00 0.00 0.00 0.00 0.00 0.00 0.00 0.00 0.00 0.00 0.00 0.00 0.00 0.00 0.00 0.00 0.00 0.00 0.00 0.00 0.00 0.00 0.00 0.00 0.00 0.00 0.00 0.00 0.00 0.00 0.00 0.00 0.00 0.00 0.00 0.00 0.00 0.00 0.00 0.00 0.00 0.00 0.00 0.00 0.00 0.00 0.00 0.00 0.00 0.00 0.00 0.00 0.01 0.00 0.02 0.03 0.04 0.04 0.05 0.06 0.07 0.08
0.00 0.00 0.00 0.00 0.00 0.00 0.00 0.00 0.00 0.00 0.00 0.00 0.00 0.00 0.00 0.00 0.00 0.00 0.00 0.00 0.00 0.00 0.00 0.00 0.00 0.00 0.00 0.00 0.00 0.00 0.00 0.00 0.00 0.00 0.00 0.00 0.00 0.00 0.00 0.00 0.00 0.00 0.00 0.00 0.00 0.00 0.00 0.00 0.00 0.00 0.00 0.00 0.00 0.00 0.00 0.00 0.00 0.00 0.00 0.00 0.00 0.00 0.01 0.01 0.01 0.01 0.02 0.02 0.05
0.00 0.00 0.00 0.00 0.00 0.00 0.00 0.00 0.00 0.00 0.00 0.00 0.00 0.00 0.00 0.00 0.00 0.00 0.00 0.00 0.00 0.00 0.00 0.00 0.00 0.00 0.00 0.00 0.00 0.00 0.00 0.00 0.00 0.00 0.00 0.00 0.00 0.00 0.00 0.00 0.00 0.00 0.00 0.00 0.00 0.00 0.00 0.00 0.00 0.00 0.00 0.00 0.00 0.00 0.00 0.00 0.00 0.00 0.00 0.00 0.00 0.00 0.00 0.00 0.00 0.00 0.00 0.00 0.02
0.00 0.00 0.00 0.00 0.00 0.00 0.00 0.00 0.00 0.00 0.00 0.00 0.00 0.00 0.00 0.00 0.00 0.00 0.00 0.00 0.00 0.00 0.00 0.00 0.00 0.00 0.00 0.00 0.00 0.00 0.00 0.00 0.00 0.00 0.00 0.00 0.00 0.00 0.00 0.00 0.00 0.00 0.00 0.00 0.00 0.00 0.00 0.00 0.00 0.00 0.00 0.00 0.00 0.00 0.00 0.00 0.00 0.00 0.00 0.00 0.00 0.00 0.00 0.00 0.00 0.01 0.01 0.02 0.01
0.00 0.00 0.00 0.00 0.00 0.00 0.00 0.00 0.00 0.00 0.00 0.00 0.00 0.00 0.00 0.00 0.00 0.00 0.00 0.00 0.00 0.00 0.00 0.00 0.00 0.00 0.00 0.00 0.00 0.00 0.00 0.00 0.00 0.00 0.00 0.00 0.00 0.00 0.00 0.00 0.00 0.00 0.00 0.00 0.00 0.00 0.00 0.00 0.00 0.00 0.00 0.00 0.00 0.00 0.00 0.00 0.00 0.00 0.00 0.00 0.00 0.00 0.00 0.00 0.00 0.00 0.00 0.00 0.00
0.00 0.00 0.00 0.00 0.00 0.00 0.00 0.00 0.00 0.00 0.00 0.00 0.00 0.00 0.00 0.00 0.00 0.00 0.00 0.00 0.00 0.00 0.00 0.00 0.00 0.00 0.00 0.00 0.00 0.00 0.00 0.00 0.00 0.00 0.00 0.00 0.00 0.00 0.00 0.00 0.00 0.00 0.00 0.00 0.00 0.00 0.00 0.00 0.00 0.00 0.00 0.00 0.00 0.00 0.00 0.00 0.00 0.00 0.00 0.00 0.00 0.00 0.00 0.00 0.00 0.00 0.00 0.00 0.00
0.00 0.00 0.00 0.00 0.00 0.00 0.00 0.00 0.00 0.00 0.00 0.00 0.00 0.00 0.00 0.00 0.00 0.00 0.00 0.00 0.00 0.00 0.00 0.00 0.00 0.00 0.00 0.00 0.00 0.00 0.00 0.00 0.00 0.00 0.00 0.00 0.00 0.00 0.00 0.00 0.00 0.00 0.00 0.00 0.00 0.00 0.00 0.00 0.00 0.00 0.00 0.00 0.00 0.00 0.00 0.00 0.00 0.00 0.00 0.00 0.00 0.00 0.00 0.00 0.00 0.00 0.00 0.00 0.00
0.00 0.00 0.00 0.00 0.00 0.00 0.00 0.00 0.00 0.00 0.00 0.00 0.00 0.00 0.00 0.00 0.00 0.00 0.00 0.00 0.00 0.00 0.00 0.00 0.00 0.00 0.00 0.00 0.00 0.00 0.00 0.00 0.00 0.00 0.00 0.00 0.00 0.00 0.00 0.00 0.00 0.00 0.00 0.00 0.00 0.00 0.00 0.00 0.00 0.00 0.00 0.00 0.00 0.00 0.00 0.00 0.00 0.00 0.00 0.00 0.00 0.00 0.00 0.00 0.00 0.00 0.00 0.00 0.00
0.00 0.00 0.00 0.00 0.00 0.00 0.00 0.00 0.00 0.00 0.00 0.00 0.00 0.00 0.00 0.00 0.00 0.00 0.00 0.00 0.00 0.00 0.00 0.00 0.00 0.00 0.00 0.00 0.00 0.00 0.00 0.00 0.00 0.00 0.00 0.00 0.00 0.00 0.00 0.00 0.00 0.00 0.00 0.00 0.00 0.00 0.00 0.00 0.00 0.00 0.00 0.00 0.00 0.00 0.00 0.00 0.00 0.00 0.00 0.00 0.00 0.00 0.00 0.00 0.00 0.00 0.00 0.00 0.00
0.00 0.00 0.00 0.00 0.00 0.00 0.00 0.00 0.00 0.00 0.00 0.00 0.00 0.00 0.00 0.00 0.00 0.00 0.00 0.00 0.00 0.00 0.00 0.00 0.00 0.00 0.00 0.00 0.00 0.00 0.00 0.00 0.00 0.00 0.00 0.00 0.00 0.00 0.00 0.00 0.00 0.00 0.00 0.00 0.00 0.00 0.00 0.00 0.00 0.00 0.00 0.00 0.00 0.00 0.00 0.00 0.00 0.00 0.00 0.00 0.00 0.00 0.00 0.00 0.00 0.00 0.00 0.00 0.00
0.00 0.00 0.00 0.00 0.00 0.00 0.00 0.00 0.00 0.00 0.00 0.00 0.00 0.00 0.00 0.00 0.00 0.00 0.00 0.00 0.00 0.00 0.00 0.00 0.00 0.00 0.00 0.00 0.00 0.00 0.00 0.00 0.00 0.00 0.00 0.00 0.00 0.00 0.00 0.00 0.00 0.00 0.00 0.00 0.00 0.00 0.00 0.00 0.00 0.00 0.00 0.00 0.00 0.00 0.00 0.00 0.00 0.00 0.00 0.00 0.00 0.00 0.00 0.00 0.00 0.00 0.00 0.00 0.00
0.00 0.00 0.00 0.00 0.00 0.00 0.00 0.00 0.00 0.00 0.00 0.00 0.00 0.00 0.00 0.00 0.00 0.00 0.00 0.00 0.00 0.00 0.00 0.00 0.00 0.00 0.00 0.00 0.00 0.00 0.00 0.00 0.00 0.00 0.00 0.00 0.00 0.00 0.00 0.00 0.00 0.00 0.00 0.00 0.00 0.00 0.00 0.00 0.00 0.00 0.00 0.00 0.00 0.00 0.00 0.00 0.00 0.00 0.00 0.00 0.00 0.00 0.00 0.00 0.00 0.00 0.00 0.00 0.00
0.00 0.00 0.00 0.00 0.00 0.00 0.00 0.00 0.00 0.00 0.00 0.00 0.00 0.00 0.00 0.00 0.00 0.00 0.00 0.00 0.00 0.00 0.00 0.00 0.00 0.00 0.00 0.00 0.00 0.00 0.00 0.00 0.00 0.00 0.00 0.00 0.00 0.00 0.00 0.00 0.00 0.00 0.00 0.00 0.00 0.00 0.00 0.00 0.00 0.00 0.00 0.00 0.00 0.00 0.00 0.00 0.00 0.00 0.00 0.00 0.00 0.00 0.00 0.00 0.00 0.00 0.00 0.00 0.00
0.00 0.00 0.00 0.00 0.00 0.00 0.00 0.00 0.00 0.00 0.00 0.00 0.00 0.00 0.00 0.00 0.00 0.00 0.00 0.00 0.00 0.00 0.00 0.00 0.00 0.00 0.00 0.00 0.00 0.00 0.00 0.00 0.00 0.00 0.00 0.00 0.00 0.00 0.00 0.00 0.00 0.00 0.00 0.00 0.00 0.00 0.00 0.00 0.00 0.00 0.00 0.00 0.00 0.00 0.00 0.00 0.00 0.00 0.00 0.00 0.00 0.00 0.00 0.00 0.00 0.00 0.00 0.00 0.00
0.00 0.00 0.00 0.00 0.00 0.00 0.00 0.00 0.00 0.00 0.00 0.00 0.00 0.00 0.00 0.00 0.00 0.00 0.00 0.00 0.00 0.00 0.00 0.00 0.00 0.00 0.00 0.00 0.00 0.00 0.00 0.00 0.00 0.00 0.00 0.00 0.00 0.00 0.00 0.00 0.00 0.00 0.00 0.00 0.00 0.00 0.00 0.00 0.00 0.00 0.00 0.00 0.00 0.00 0.00 0.00 0.00 0.00 0.00 0.00 0.00 0.00 0.00 0.00 0.00 0.00 0.00 0.00 0.00
0.00 0.00 0.00 0.00 0.00 0.00 0.00 0.00 0.00 0.00 0.00 0.00 0.00 0.00 0.00 0.00 0.00 0.00 0.00 0.00 0.00 0.00 0.00 0.00 0.00 0.00 0.00 0.00 0.00 0.00 0.00 0.00 0.00 0.00 0.00 0.00 0.00 0.00 0.00 0.00 0.00 0.00 0.00 0.00 0.00 0.00 0.00 0.00 0.00 0.00 0.00 0.00 0.00 0.00 0.00 0.00 0.00 0.00 0.00 0.00 0.00 0.00 0.00 0.00 0.00 0.00 0.00 0.00 0.00
0.00 0.00 0.00 0.00 0.00 0.00 0.00 0.00 0.00 0.00 0.00 0.00 0.00 0.00 0.00 0.00 0.00 0.00 0.00 0.00 0.00 0.00 0.00 0.00 0.00 0.00 0.00 0.00 0.00 0.00 0.00 0.00 0.00 0.00 0.00 0.00 0.00 0.00 0.00 0.00 0.00 0.00 0.00 0.00 0.00 0.00 0.00 0.00 0.00 0.00 0.00 0.00 0.00 0.00 0.00 0.00 0.00 0.00 0.00 0.00 0.00 0.00 0.00 0.00 0.00 0.00 0.00 0.00 0.00
0.00 0.00 0.00 0.00 0.00 0.00 0.00 0.00 0.00 0.00 0.00 0.00 0.00 0.00 0.00 0.00 0.00 0.00 0.00 0.00 0.00 0.00 0.00 0.00 0.00 0.00 0.00 0.00 0.00 0.00 0.00 0.00 0.00 0.00 0.00 0.00 0.00 0.00 0.00 0.00 0.00 0.00 0.00 0.00 0.00 0.00 0.00 0.00 0.00 0.00 0.00 0.00 0.00 0.00 0.00 0.00 0.00 0.00 0.00 0.00 0.00 0.00 0.00 0.00 0.00 0.00 0.00 0.00 0.00
0.00 0.00 0.00 0.00 0.00 0.00 0.00 0.00 0.00 0.00 0.00 0.00 0.00 0.00 0.00 0.00 0.00 0.00 0.00 0.00 0.00 0.00 0.00 0.00 0.00 0.00 0.00 0.00 0.00 0.00 0.00 0.00 0.00 0.00 0.00 0.00 0.00 0.00 0.00 0.00 0.00 0.00 0.00 0.00 0.00 0.00 0.00 0.00 0.00 0.00 0.00 0.00 0.00 0.00 0.00 0.00 0.00 0.00 0.00 0.00 0.00 0.00 0.00 0.00 0.00 0.00 0.00 0.00 0.00
0.00 0.00 0.00 0.00 0.00 0.00 0.00 0.00 0.00 0.00 0.00 0.00 0.00 0.00 0.00 0.00 0.00 0.00 0.00 0.00 0.00 0.00 0.00 0.00 0.00 0.00 0.00 0.00 0.00 0.00 0.00 0.00 0.00 0.00 0.00 0.00 0.00 0.00 0.00 0.00 0.00 0.00 0.00 0.00 0.00 0.00 0.00 0.00 0.00 0.00 0.00 0.00 0.00 0.00 0.00 0.00 0.00 0.00 0.00 0.00 0.00 0.00 0.00 0.00 0.00 0.00 0.00 0.00 0.00
0.00 0.00 0.00 0.00 0.00 0.00 0.00 0.00 0.00 0.00 0.00 0.00 0.00 0.00 0.00 0.00 0.00 0.00 0.00 0.00 0.00 0.00 0.00 0.00 0.00 0.00 0.00 0.00 0.00 0.00 0.00 0.00 0.00 0.00 0.00 0.00 0.00 0.00 0.00 0.00 0.00 0.00 0.00 0.00 0.00 0.00 0.00 0.00 0.00 0.00 0.00 0.00 0.00 0.00 0.00 0.00 0.00 0.00 0.00 0.00 0.00 0.00 0.00 0.00 0.00 0.00 0.00 0.00 0.00
0.00 0.00 0.00 0.00 0.00 0.00 0.00 0.00 0.00 0.00 0.00 0.00 0.00 0.00 0.00 0.00 0.00 0.00 0.00 0.00 0.00 0.00 0.00 0.00 0.00 0.00 0.00 0.00 0.00 0.00 0.00 0.00 0.00 0.00 0.00 0.00 0.00 0.00 0.00 0.00 0.00 0.00 0.00 0.00 0.00 0.00 0.00 0.00 0.00 0.00 0.00 0.00 0.00 0.00 0.00 0.00 0.00 0.00 0.00 0.00 0.00 0.00 0.00 0.00 0.00 0.00 0.00 0.00 0.00
0.00 0.00 0.00 0.00 0.00 0.00 0.00 0.00 0.00 0.00 0.00 0.00 0.00 0.00 0.00 0.00 0.00 0.00 0.00 0.00 0.00 0.00 0.00 0.00 0.00 0.00 0.00 0.00 0.00 0.00 0.00 0.00 0.00 0.00 0.00 0.00 0.00 0.00 0.00 0.00 0.00 0.00 0.00 0.00 0.00 0.00 0.00 0.00 0.00 0.00 0.00 0.00 0.00 0.00 0.00 0.00 0.00 0.00 0.00 0.00 0.00 0.00 0.00 0.00 0.00 0.00 0.00 0.00 0.00
0.00 0.00 0.00 0.00 0.00 0.00 0.00 0.00 0.00 0.00 0.00 0.00 0.00 0.00 0.00 0.00 0.00 0.00 0.00 0.00 0.00 0.00 0.00 0.00 0.00 0.00 0.00 0.00 0.00 0.00 0.00 0.00 0.00 0.00 0.00 0.00 0.00 0.00 0.00 0.00 0.00 0.00 0.00 0.00 0.00 0.00 0.00 0.00 0.00 0.00 0.00 0.00 0.00 0.00 0.00 0.00 0.00 0.00 0.00 0.00 0.00 0.00 0.00 0.00 0.00 0.00 0.00 0.00 0.00
0.00 0.00 0.00 0.00 0.00 0.00 0.00 0.00 0.00 0.00 0.00 0.00 0.00 0.00 0.00 0.00 0.00 0.00 0.00 0.00 0.00 0.00 0.00 0.00 0.00 0.00 0.00 0.00 0.00 0.00 0.00 0.00 0.00 0.00 0.00 0.00 0.00 0.00 0.00 0.00 0.00 0.00 0.00 0.00 0.00 0.00 0.00 0.00 0.00 0.00 0.00 0.00 0.00 0.00 0.00 0.00 0.00 0.00 0.00 0.00 0.00 0.00 0.00 0.00 0.00 0.00 0.00 0.00 0.00
0.00 0.00 0.00 0.00 0.00 0.00 0.00 0.00 0.00 0.00 0.00 0.00 0.00 0.00 0.00 0.00 0.00 0.00 0.00 0.00 0.00 0.00 0.00 0.00 0.00 0.00 0.00 0.00 0.00 0.00 0.00 0.00 0.00 0.00 0.00 0.00 0.00 0.00 0.00 0.00 0.00 0.00 0.00 0.00 0.00 0.00 0.00 0.00 0.00 0.00 0.00 0.00 0.00 0.00 0.00 0.00 0.00 0.00 0.00 0.00 0.00 0.00 0.00 0.00 0.00 0.00 0.00 0.00 0.00
0.00 0.00 0.00 0.00 0.00 0.00 0.00 0.00 0.00 0.00 0.00 0.00 0.00 0.00 0.00 0.00 0.00 0.00 0.00 0.00 0.00 0.00 0.00 0.00 0.00 0.00 0.00 0.00 0.00 0.00 0.00 0.00 0.00 0.00 0.00 0.00 0.00 0.00 0.00 0.00 0.00 0.00 0.00 0.00 0.00 0.00 0.00 0.00 0.00 0.00 0.00 0.00 0.00 0.00 0.00 0.00 0.00 0.00 0.00 0.00 0.00 0.00 0.00 0.00 0.00 0.00 0.00 0.00 0.00
0.00 0.00 0.00 0.00 0.00 0.00 0.00 0.00 0.00 0.00 0.00 0.00 0.00 0.00 0.00 0.00 0.00 0.00 0.00 0.00 0.00 0.00 0.00 0.00 0.00 0.00 0.00 0.00 0.00 0.00 0.00 0.00 0.00 0.00 0.00 0.00 0.00 0.00 0.00 0.00 0.00 0.00 0.00 0.00 0.00 0.00 0.00 0.00 0.00 0.00 0.00 0.00 0.00 0.00 0.00 0.00 0.00 0.00 0.00 0.00 0.00 0.00 0.00 0.00 0.00 0.00 0.00 0.00 0.00
0.00 0.00 0.00 0.00 0.00 0.00 0.00 0.00 0.00 0.00 0.00 0.00 0.00 0.00 0.00 0.00 0.00 0.00 0.00 0.00 0.00 0.00 0.00 0.00 0.00 0.00 0.00 0.00 0.00 0.00 0.00 0.00 0.00 0.00 0.00 0.00 0.00 0.00 0.00 0.00 0.00 0.00 0.00 0.00 0.00 0.00 0.00 0.00 0.00 0.00 0.00 0.00 0.00 0.00 0.00 0.00 0.00 0.00 0.00 0.00 0.00 0.00 0.00 0.00 0.00 0.00 0.00 0.00 0.00
0.00 0.00 0.00 0.00 0.00 0.00 0.00 0.00 0.00 0.00 0.00 0.00 0.00 0.00 0.00 0.00 0.00 0.00 0.00 0.00 0.00 0.00 0.00 0.00 0.00 0.00 0.00 0.00 0.00 0.00 0.00 0.00 0.00 0.00 0.00 0.00 0.00 0.00 0.00 0.00 0.00 0.00 0.00 0.00 0.00 0.00 0.00 0.00 0.00 0.00 0.00 0.00 0.00 0.00 0.00 0.00 0.00 0.00 0.00 0.00 0.00 0.00 0.00 0.00 0.00 0.00 0.00 0.00 0.00
0.00 0.00 0.00 0.00 0.00 0.00 0.00 0.00 0.00 0.00 0.00 0.00 0.00 0.00 0.00 0.00 0.00 0.00 0.00 0.00 0.00 0.00 0.00 0.00 0.00 0.00 0.00 0.00 0.00 0.00 0.00 0.00 0.00 0.00 0.00 0.00 0.00 0.00 0.00 0.00 0.00 0.00 0.00 0.00 0.00 0.00 0.00 0.00 0.00 0.00 0.00 0.00 0.00 0.00 0.00 0.00 0.00 0.00 0.00 0.00 0.00 0.00 0.00 0.00 0.00 0.00 0.00 0.00 0.00
0.00 0.00 0.00 0.00 0.00 0.00 0.00 0.00 0.00 0.00 0.00 0.00 0.00 0.00 0.00 0.00 0.00 0.00 0.00 0.00 0.00 0.00 0.00 0.00 0.00 0.00 0.00 0.00 0.00 0.00 0.00 0.00 0.00 0.00 0.00 0.00 0.00 0.00 0.00 0.00 0.00 0.00 0.00 0.00 0.00 0.00 0.00 0.00 0.00 0.00 0.00 0.00 0.00 0.00 0.00 0.00 0.00 0.00 0.00 0.00 0.00 0.00 0.00 0.00 0.00 0.00 0.00 0.00 0.00
0.00 0.00 0.00 0.00 0.00 0.00 0.00 0.00 0.00 0.00 0.00 0.00 0.00 0.00 0.00 0.00 0.00 0.00 0.00 0.00 0.00 0.00 0.00 0.00 0.00 0.00 0.00 0.00 0.00 0.00 0.00 0.00 0.00 0.00 0.00 0.00 0.00 0.00 0.00 0.00 0.00 0.00 0.00 0.00 0.00 0.00 0.00 0.00 0.00 0.00 0.00 0.00 0.00 0.00 0.00 0.00 0.00 0.00 0.00 0.00 0.00 0.00 0.00 0.00 0.00 0.00 0.00 0.00 0.00
0.00 0.00 0.00 0.00 0.00 0.00 0.00 0.00 0.00 0.00 0.00 0.00 0.00 0.00 0.00 0.00 0.00 0.00 0.00 0.00 0.00 0.00 0.00 0.00 0.00 0.00 0.00 0.00 0.00 0.00 0.00 0.00 0.00 0.00 0.00 0.00 0.00 0.00 0.00 0.00 0.00 0.00 0.00 0.00 0.00 0.00 0.00 0.00 0.00 0.00 0.00 0.00 0.00 0.00 0.00 0.00 0.00 0.00 0.00 0.00 0.00 0.00 0.00 0.00 0.00 0.00 0.00 0.00 0.00
0.00 0.00 0.00 0.00 0.00 0.00 0.00 0.00 0.00 0.00 0.00 0.00 0.00 0.00 0.00 0.00 0.00 0.00 0.00 0.00 0.00 0.00 0.00 0.00 0.00 0.00 0.00 0.00 0.00 0.00 0.00 0.00 0.00 0.00 0.00 0.00 0.00 0.00 0.00 0.00 0.00 0.00 0.00 0.00 0.00 0.00 0.00 0.00 0.00 0.00 0.00 0.00 0.00 0.00 0.00 0.00 0.00 0.00 0.00 0.00 0.00 0.00 0.00 0.00 0.00 0.00 0.00 0.00 0.00
0.00 0.00 0.00 0.00 0.00 0.00 0.00 0.00 0.00 0.00 0.00 0.00 0.00 0.00 0.00 0.00 0.00 0.00 0.00 0.00 0.00 0.00 0.00 0.00 0.00 0.00 0.00 0.00 0.00 0.00 0.00 0.00 0.00 0.00 0.00 0.00 0.00 0.00 0.00 0.00 0.00 0.00 0.00 0.00 0.00 0.00 0.00 0.00 0.00 0.00 0.00 0.00 0.00 0.00 0.00 0.00 0.00 0.00 0.00 0.00 0.00 0.00 0.00 0.00 0.00 0.00 0.00 0.00 0.00
0.00 0.00 0.00 0.00 0.00 0.00 0.00 0.00 0.00 0.00 0.00 0.00 0.00 0.00 0.00 0.00 0.00 0.00 0.00 0.00 0.00 0.00 0.00 0.00 0.00 0.00 0.00 0.00 0.00 0.00 0.00 0.00 0.00 0.00 0.00 0.00 0.00 0.00 0.00 0.00 0.00 0.00 0.00 0.00 0.00 0.00 0.00 0.00 0.00 0.00 0.00 0.00 0.00 0.00 0.00 0.00 0.00 0.00 0.00 0.00 0.00 0.00 0.00 0.00 0.00 0.00 0.00 0.00 0.00
0.00 0.00 0.00 0.00 0.00 0.00 0.00 0.00 0.00 0.00 0.00 0.00 0.00 0.00 0.00 0.00 0.00 0.00 0.00 0.00 0.00 0.00 0.00 0.00 0.00 0.00 0.00 0.00 0.00 0.00 0.00 0.00 0.00 0.00 0.00 0.00 0.00 0.00 0.00 0.00 0.00 0.00 0.00 0.00 0.00 0.00 0.00 0.00 0.00 0.00 0.00 0.00 0.00 0.00 0.00 0.00 0.00 0.00 0.00 0.00 0.00 0.00 0.00 0.00 0.00 0.00 0.00 0.00 0.00
0.00 0.00 0.00 0.00 0.00 0.00 0.00 0.00 0.00 0.00 0.00 0.00 0.00 0.00 0.00 0.00 0.00 0.00 0.00 0.00 0.00 0.00 0.00 0.00 0.00 0.00 0.00 0.00 0.00 0.00 0.00 0.00 0.00 0.00 0.00 0.00 0.00 0.00 0.00 0.00 0.00 0.00 0.00 0.00 0.00 0.00 0.00 0.00 0.00 0.00 0.00 0.00 0.00 0.00 0.00 0.00 0.00 0.00 0.00 0.00 0.00 0.00 0.00 0.00 0.00 0.00 0.00 0.00 0.00
0.00 0.00 0.00 0.00 0.00 0.00 0.00 0.00 0.00 0.00 0.00 0.00 0.00 0.00 0.00 0.00 0.00 0.00 0.00 0.00 0.00 0.00 0.00 0.00 0.00 0.00 0.00 0.00 0.00 0.00 0.00 0.00 0.00 0.00 0.00 0.00 0.00 0.00 0.00 0.00 0.00 0.00 0.00 0.00 0.00 0.00 0.00 0.00 0.00 0.00 0.00 0.00 0.00 0.00 0.00 0.00 0.00 0.00 0.00 0.00 0.00 0.00 0.00 0.00 0.00 0.00 0.00 0.00 0.00
MSLP
1012.56 1012.48 1012.40 1012.28 1012.16 1012.08 1012.00 1011.88 1011.76 1011.72 1011.60 1011.56 1011.48 1011.36 1011.28 1011.16 1011.04 1010.96 1010.84 1010.72 1010.60 1010.52 1010.36 1010.20 1010.08 1009.96 1009.84 1009.68 1009.56 1009.40 1009.24 1009.08 1008.92 1008.76 1008.64 1008.48 1008.36 1008.20 1008.04 1007.88 1007.72 1007.60 1007.44 1007.24 1007.12 1006.96 1006.80 1006.64 1006.52 1006.36 1006.16 1006.00 1005.80 1005.64 1005.44 1005.28 1005.08 1004.92 1004.76 1004.64 1004.44 1004.28 1004.12 1003.96 1003.72 1003.60 1003.44 1003.32 1003.20
1012.72 1012.64 1012.56 1012.44 1012.32 1012.20 1012.12 1012.00 1011.92 1011.84 1011.72 1011.64 1011.60 1011.48 1011.40 1011.28 1011.16 1011.08 1010.96 1010.88 1010.76 1010.60 1010.48 1010.32 1010.16 1010.04 1009.92 1009.76 1009.64 1009.48 1009.36 1009.16 1009.00 1008.88 1008.72 1008.56 1008.44 1008.28 1008.12 1008.00 1007.80 1007.60 1007.44 1007.28 1007.12 1006.92 1006.76 1006.60 1006.48 1006.32 1006.12 1005.92 1005.72 1005.56 1005.36 1005.16 1005.04 1004.88 1004.64 1004.48 1004.32 1004.16 1004.00 1003.80 1003.64 1003.48 1003.36 1003.16 1003.04
1012.92 1012.84 1012.72 1012.64 1012.52 1012.44 1012.32 1012.20 1012.16 1012.04 1011.92 1011.80 1011.72 1011.60 1011.48 1011.40 1011.28 1011.20 1011.08 1010.96 1010.84 1010.72 1010.56 1010.44 1010.32 1010.16 1010.00 1009.88 1009.72 1009.60 1009.44 1009.28 1009.16 1009.00 1008.84 1008.64 1008.48 1008.36 1008.20 1008.04 1007.88 1007.72 1007.52 1007.32 1007.16 1007.00 1006.80 1006.64 1006.48 1006.32 1006.08 1005.88 1005.72 1005.52 1005.28 1005.04 1004.92 1004.76 1004.60 1004.40 1004.24 1004.08 1003.88 1003.72 1003.56 1003.40 1003.24 1003.08 1002.92
1013.04 1013.00 1012.92 1012.84 1012.76 1012.72 1012.60 1012.40 1012.32 1012.16 1012.04 1011.92 1011.80 1011.68 1011.60 1011.52 1011.44 1011.32 1011.20 1011.08 1010.92 1010.80 1010.72 1010.60 1010.44 1010.28 1010.12 1010.00 1009.84 1009.68 1009.52 1009.40 1009.24 1009.08 1008.92 1008.76 1008.60 1008.40 1008.24 1008.08 1007.88 1007.72 1007.56 1007.36 1007.16 1007.00 1006.84 1006.68 1006.48 1006.28 1006.04 1005.88 1005.68 1005.44 1005.20 1005.00 1004.84 1004.68 1004.52 1004.32 1004.16 1004.00 1003.88 1003.68 1003.44 1003.24 1003.04 1002.88 1002.72
1013.16 1013.16 1013.08 1013.00 1012.88 1012.76 1012.68 1012.56 1012.44 1012.32 1012.16 1012.04 1011.96 1011.84 1011.72 1011.64 1011.52 1011.40 1011.28 1011.16 1011.04 1010.96 1010.84 1010.72 1010.56 1010.36 1010.20 1010.08 1009.92 1009.76 1009.60 1009.48 1009.28 1009.16 1009.00 1008.88 1008.68 1008.48 1008.32 1008.16 1008.00 1007.80 1007.60 1007.44 1007.24 1007.04 1006.88 1006.72 1006.48 1006.28 1006.04 1005.84 1005.60 1005.36 1005.16 1004.96 1004.80 1004.60 1004.44 1004.28 1004.12 1003.92 1003.72 1003.52 1003.32 1003.16 1003.00 1002.80 1002.60
1013.32 1013.24 1013.16 1013.08 1012.96 1012.84 1012.72 1012.60 1012.48 1012.36 1012.28 1012.16 1012.08 1012.00 1011.88 1011.76 1011.64 1011.56 1011.44 1011.28 1011.16 1011.04 1010.88 1010.72 1010.60 1010.44 1010.32 1010.16 1010.00 1009.88 1009.72 1009.56 1009.40 1009.24 1009.08 1008.92 1008.72 1008.56 1008.40 1008.20 1008.04 1007.88 1007.68 1007.48 1007.28 1007.12 1006.92 1006.72 1006.48 1006.28 1006.00 1005.80 1005.56 1005.28 1005.08 1004.96 1004.80 1004.60 1004.44 1004.20 1004.00 1003.80 1003.60 1003.44 1003.24 1003.04 1002.88 1002.72 1002.52
1013.44 1013.36 1013.28 1013.16 1013.04 1012.92 1012.84 1012.72 1012.60 1012.44 1012.36 1012.28 1012.24 1012.16 1012.04 1011.88 1011.80 1011.72 1011.56 1011.40 1011.24 1011.12 1010.92 1010.76 1010.64 1010.56 1010.40 1010.24 1010.08 1009.88 1009.72 1009.60 1009.44 1009.28 1009.16 1009.00 1008.80 1008.60 1008.44 1008.28 1008.12 1007.92 1007.72 1007.56 1007.36 1007.16 1006.96 1006.76 1006.56 1006.32 1006.00 1005.80 1005.56 1005.28 1005.08 1004.96 1004.80 1004.60 1004.40 1004.16 1003.88 1003.72 1003.48 1003.28 1003.12 1002.92 1002.76 1002.60 1002.44
1013.56 1013.48 1013.44 1013.32 1013.20 1013.08 1012.96 1012.84 1012.72 1012.60 1012.52 1012.44 1012.36 1012.28 1012.16 1012.00 1011.88 1011.76 1011.60 1011.44 1011.32 1011.20 1011.04 1010.88 1010.72 1010.64 1010.48 1010.32 1010.16 1009.96 1009.80 1009.60 1009.44 1009.32 1009.16 1009.00 1008.84 1008.64 1008.48 1008.32 1008.16 1007.96 1007.80 1007.60 1007.44 1007.24 1007.00 1006.80 1006.60 1006.32 1006.08 1005.84 1005.60 1005.36 1005.16 1005.00 1004.80 1004.60 1004.36 1004.16 1003.88 1003.60 1003.44 1003.24 1003.00 1002.80 1002.68 1002.52 1002.32
1013.72 1013.64 1013.56 1013.44 1013.32 1013.20 1013.08 1012.96 1012.88 1012.76 1012.72 1012.60 1012.52 1012.44 1012.28 1012.12 1012.00 1011.84 1011.68 1011.56 1011.44 1011.28 1011.12 1010.92 1010.76 1010.64 1010.48 1010.36 1010.20 1010.00 1009.84 1009.68 1009.52 1009.32 1009.16 1009.04 1008.88 1008.68 1008.52 1008.32 1008.16 1007.96 1007.80 1007.64 1007.44 1007.24 1007.04 1006.84 1006.60 1006.36 1006.16 1005.92 1005.72 1005.44 1005.20 1005.00 1004.80 1004.60 1004.32 1004.12 1003.84 1003.56 1003.36 1003.20 1002.96 1002.76 1002.60 1002.44 1002.24
1013.92 1013.80 1013.68 1013.60 1013.44 1013.32 1013.20 1013.08 1013.00 1012.88 1012.80 1012.72 1012.60 1012.44 1012.32 1012.16 1012.00 1011.92 1011.80 1011.60 1011.48 1011.32 1011.16 1011.00 1010.84 1010.68 1010.56 1010.40 1010.24 1010.04 1009.88 1009.72 1009.56 1009.40 1009.20 1009.04 1008.88 1008.72 1008.56 1008.36 1008.20 1008.00 1007.80 1007.64 1007.44 1007.28 1007.08 1006.88 1006.60 1006.40 1006.16 1006.00 1005.76 1005.48 1005.20 1005.00 1004.84 1004.60 1004.36 1004.12 1003.88 1003.60 1003.32 1003.16 1002.96 1002.72 1002.52 1002.32 1002.12
1014.04 1013.96 1013.84 1013.72 1013.60 1013.44 1013.28 1013.20 1013.08 1012.96 1012.88 1012.76 1012.64 1012.48 1012.36 1012.20 1012.08 1012.00 1011.84 1011.68 1011.52 1011.36 1011.20 1011.04 1010.88 1010.72 1010.60 1010.40 1010.24 1010.08 1009.92 1009.76 1009.60 1009.44 1009.24 1009.04 1008.92 1008.76 1008.60 1008.44 1008.28 1008.08 1007.88 1007.72 1007.48 1007.28 1007.08 1006.88 1006.64 1006.44 1006.20 1006.00 1005.76 1005.52 1005.20 1005.00 1004.84 1004.64 1004.40 1004.16 1003.92 1003.64 1003.36 1003.12 1002.92 1002.72 1002.48 1002.28 1002.04
1014.16 1014.04 1013.96 1013.88 1013.72 1013.60 1013.44 1013.32 1013.16 1013.00 1012.96 1012.88 1012.72 1012.56 1012.44 1012.32 1012.16 1012.00 1011.88 1011.72 1011.60 1011.40 1011.20 1011.08 1010.96 1010.80 1010.60 1010.44 1010.28 1010.12 1009.92 1009.76 1009.60 1009.44 1009.28 1009.08 1008.92 1008.76 1008.60 1008.44 1008.28 1008.12 1007.92 1007.72 1007.52 1007.32 1007.16 1006.92 1006.72 1006.44 1006.20 1006.00 1005.76 1005.52 1005.28 1005.04 1004.88 1004.68 1004.44 1004.16 1003.92 1003.68 1003.40 1003.16 1002.96 1002.76 1002.52 1002.28 1002.04
1014.28 1014.16 1014.04 1013.96 1013.80 1013.68 1013.56 1013.44 1013.28 1013.16 1013.04 1012.96 1012.84 1012.68 1012.52 1012.40 1012.24 1012.08 1011.92 1011.80 1011.60 1011.44 1011.28 1011.16 1011.00 1010.88 1010.68 1010.48 1010.32 1010.16 1009.96 1009.80 1009.64 1009.48 1009.28 1009.12 1008.92 1008.76 1008.60 1008.44 1008.28 1008.08 1007.92 1007.72 1007.56 1007.36 1007.16 1006.96 1006.72 1006.52 1006.24 1006.00 1005.72 1005.56 1005.36 1005.16 1004.96 1004.72 1004.44 1004.16 1003.96 1003.72 1003.44 1003.20 1003.00 1002.80 1002.60 1002.40 1002.16
1014.36 1014.28 1014.16 1014.08 1013.96 1013.80 1013.68 1013.56 1013.40 1013.28 1013.16 1013.08 1012.96 1012.80 1012.64 1012.48 1012.32 1012.16 1012.04 1011.88 1011.72 1011.60 1011.40 1011.20 1011.04 1010.88 1010.72 1010.60 1010.40 1010.24 1010.04 1009.88 1009.68 1009.48 1009.28 1009.12 1008.92 1008.76 1008.60 1008.44 1008.24 1008.08 1007.88 1007.72 1007.52 1007.36 1007.20 1007.00 1006.72 1006.52 1006.28 1006.00 1005.76 1005.60 1005.40 1005.20 1005.00 1004.80 1004.56 1004.28 1004.00 1003.72 1003.48 1003.24 1003.00 1002.84 1002.64 1002.44 1002.20
1014.48 1014.40 1014.32 1014.20 1014.12 1014.00 1013.88 1013.72 1013.60 1013.44 1013.36 1013.24 1013.12 1012.96 1012.80 1012.60 1012.44 1012.32 1012.16 1012.00 1011.88 1011.68 1011.52 1011.36 1011.16 1011.00 1010.84 1010.68 1010.48 1010.28 1010.08 1009.88 1009.68 1009.44 1009.24 1009.04 1008.88 1008.72 1008.56 1008.36 1008.20 1008.04 1007.88 1007.68 1007.48 1007.32 1007.16 1006.96 1006.72 1006.48 1006.28 1006.04 1005.84 1005.60 1005.44 1005.24 1005.04 1004.84 1004.60 1004.32 1004.04 1003.80 1003.52 1003.28 1003.04 1002.88 1002.68 1002.44 1002.24
1014.60 1014.52 1014.44 1014.32 1014.24 1014.16 1014.04 1013.92 1013.80 1013.72 1013.60 1013.44 1013.28 1013.12 1012.96 1012.80 1012.60 1012.44 1012.32 1012.16 1011.96 1011.76 1011.64 1011.48 1011.28 1011.04 1010.88 1010.72 1010.56 1010.32 1010.12 1009.88 1009.72 1009.48 1009.28 1009.04 1008.88 1008.72 1008.52 1008.36 1008.16 1008.00 1007.84 1007.64 1007.44 1007.28 1007.08 1006.88 1006.72 1006.48 1006.32 1006.08 1005.88 1005.64 1005.44 1005.24 1005.00 1004.76 1004.56 1004.32 1004.08 1003.84 1003.60 1003.28 1003.12 1002.88 1002.68 1002.48 1002.28
1014.80 1014.68 1014.60 1014.48 1014.44 1014.32 1014.24 1014.16 1014.00 1013.88 1013.72 1013.60 1013.40 1013.28 1013.12 1012.96 1012.76 1012.60 1012.44 1012.32 1012.08 1011.88 1011.72 1011.60 1011.40 1011.16 1010.96 1010.72 1010.60 1010.44 1010.16 1009.88 1009.72 1009.56 1009.36 1009.16 1008.92 1008.72 1008.52 1008.36 1008.16 1007.96 1007.76 1007.60 1007.40 1007.20 1007.00 1006.84 1006.64 1006.44 1006.28 1006.08 1005.88 1005.68 1005.44 1005.24 1005.00 1004.72 1004.48 1004.28 1004.00 1003.80 1003.60 1003.32 1003.12 1002.88 1002.68 1002.44 1002.24
1014.96 1014.88 1014.72 1014.68 1014.60 1014.52 1014.40 1014.32 1014.16 1014.00 1013.88 1013.72 1013.56 1013.40 1013.24 1013.08 1012.88 1012.72 1012.60 1012.40 1012.24 1012.04 1011.84 1011.64 1011.48 1011.28 1011.08 1010.88 1010.68 1010.52 1010.32 1010.00 1009.80 1009.60 1009.40 1009.20 1009.00 1008.76 1008.56 1008.36 1008.16 1007.96 1007.76 1007.60 1007.36 1007.16 1006.96 1006.76 1006.60 1006.40 1006.24 1006.04 1005.84 1005.60 1005.40 1005.16 1004.88 1004.64 1004.44 1004.20 1003.96 1003.72 1003.56 1003.28 1003.12 1002.88 1002.64 1002.40 1002.16
1015.16 1015.00 1014.92 1014.88 1014.76 1014.64 1014.56 1014.44 1014.32 1014.16 1014.00 1013.84 1013.68 1013.52 1013.36 1013.20 1013.00 1012.84 1012.64 1012.44 1012.32 1012.16 1011.96 1011.72 1011.52 1011.32 1011.16 1011.00 1010.76 1010.60 1010.40 1010.16 1009.88 1009.68 1009.44 1009.24 1009.00 1008.80 1008.60 1008.36 1008.12 1007.92 1007.72 1007.56 1007.36 1007.16 1006.92 1006.72 1006.56 1006.36 1006.16 1005.96 1005.72 1005.52 1005.28 1005.04 1004.80 1004.56 1004.32 1004.12 1003.88 1003.68 1003.44 1003.24 1003.04 1002.80 1002.60 1002.36 1002.12
1015.28 1015.20 1015.12 1015.00 1014.92 1014.80 1014.68 1014.56 1014.44 1014.28 1014.12 1013.96 1013.80 1013.60 1013.44 1013.28 1013.08 1012.92 1012.72 1012.56 1012.40 1012.24 1012.08 1011.88 1011.60 1011.44 1011.20 1011.00 1010.84 1010.64 1010.44 1010.20 1010.00 1009.72 1009.52 1009.28 1009.08 1008.88 1008.64 1008.40 1008.16 1007.92 1007.72 1007.56 1007.28 1007.12 1006.92 1006.72 1006.56 1006.32 1006.12 1005.88 1005.64 1005.40 1005.16 1004.88 1004.64 1004.44 1004.20 1004.00 1003.76 1003.56 1003.32 1003.12 1002.92 1002.72 1002.48 1002.28 1002.00
1015.44 1015.36 1015.24 1015.16 1015.00 1014.92 1014.80 1014.68 1014.52 1014.36 1014.20 1014.04 1013.88 1013.68 1013.52 1013.32 1013.16 1013.00 1012.88 1012.68 1012.48 1012.32 1012.16 1011.96 1011.76 1011.60 1011.36 1011.16 1010.92 1010.72 1010.48 1010.32 1010.08 1009.88 1009.60 1009.40 1009.16 1008.96 1008.72 1008.48 1008.20 1007.96 1007.72 1007.56 1007.32 1007.12 1006.92 1006.72 1006.52 1006.32 1006.08 1005.84 1005.56 1005.28 1005.04 1004.76 1004.48 1004.24 1004.00 1003.84 1003.60 1003.40 1003.20 1003.00 1002.80 1002.56 1002.32 1002.12 1001.92
1015.56 1015.44 1015.32 1015.20 1015.12 1015.00 1014.88 1014.72 1014.60 1014.44 1014.32 1014.12 1013.92 1013.76 1013.60 1013.40 1013.24 1013.12 1012.92 1012.72 1012.60 1012.40 1012.24 1012.08 1011.88 1011.72 1011.48 1011.28 1011.08 1010.84 1010.56 1010.36 1010.16 1009.96 1009.72 1009.48 1009.24 1009.00 1008.80 1008.60 1008.32 1008.04 1007.80 1007.60 1007.36 1007.16 1006.92 1006.72 1006.48 1006.28 1006.00 1005.72 1005.44 1005.16 1004.92 1004.68 1004.40 1004.12 1003.84 1003.64 1003.44 1003.20 1003.00 1002.88 1002.64 1002.44 1002.20 1002.00 1001.80
1015.64 1015.56 1015.44 1015.28 1015.16 1015.04 1014.92 1014.80 1014.64 1014.48 1014.32 1014.16 1014.00 1013.84 1013.68 1013.52 1013.32 1013.16 1013.00 1012.80 1012.68 1012.52 1012.32 1012.16 1012.00 1011.80 1011.60 1011.40 1011.16 1010.92 1010.64 1010.40 1010.20 1010.00 1009.80 1009.60 1009.32 1009.08 1008.88 1008.68 1008.44 1008.16 1007.92 1007.72 1007.48 1007.28 1007.04 1006.80 1006.52 1006.28 1006.00 1005.72 1005.40 1005.08 1004.84 1004.60 1004.32 1004.00 1003.72 1003.48 1003.24 1003.00 1002.80 1002.64 1002.44 1002.28 1002.04 1001.88 1001.68
1015.72 1015.60 1015.48 1015.36 1015.24 1015.12 1015.00 1014.84 1014.72 1014.56 1014.40 1014.24 1014.08 1013.96 1013.76 1013.60 1013.44 1013.20 1013.04 1012.88 1012.76 1012.60 1012.44 1012.28 1012.12 1011.88 1011.68 1011.44 1011.24 1011.00 1010.80 1010.56 1010.28 1010.00 1009.80 1009.60 1009.44 1009.16 1008.96 1008.72 1008.52 1008.28 1008.04 1007.80 1007.60 1007.44 1007.20 1006.96 1006.64 1006.32 1006.00 1005.72 1005.44 1005.12 1004.80 1004.56 1004.28 1004.00 1003.68 1003.40 1003.12 1002.88 1002.60 1002.44 1002.32 1002.12 1001.92 1001.76 1001.60
1015.80 1015.68 1015.56 1015.44 1015.32 1015.16 1015.04 1014.88 1014.80 1014.64 1014.48 1014.32 1014.16 1014.00 1013.88 1013.68 1013.48 1013.28 1013.16 1013.00 1012.88 1012.72 1012.56 1012.36 1012.16 1011.96 1011.72 1011.48 1011.28 1011.12 1010.88 1010.68 1010.44 1010.12 1009.84 1009.60 1009.44 1009.24 1009.04 1008.84 1008.60 1008.36 1008.16 1007.88 1007.68 1007.44 1007.20 1007.00 1006.72 1006.44 1006.08 1005.72 1005.44 1005.12 1004.80 1004.48 1004.20 1003.92 1003.64 1003.36 1003.08 1002.80 1002.52 1002.28 1002.08 1001.96 1001.80 1001.64 1001.44
1015.88 1015.72 1015.64 1015.52 1015.40 1015.28 1015.16 1015.00 1014.88 1014.72 1014.60 1014.44 1014.28 1014.12 1013.96 1013.76 1013.60 1013.44 1013.28 1013.16 1013.00 1012.84 1012.64 1012.44 1012.24 1012.00 1011.76 1011.56 1011.32 1011.16 1010.96 1010.76 1010.52 1010.28 1010.00 1009.72 1009.48 1009.28 1009.12 1008.92 1008.68 1008.44 1008.20 1007.92 1007.64 1007.36 1007.12 1006.88 1006.60 1006.36 1006.12 1005.80 1005.44 1005.16 1004.80 1004.44 1004.12 1003.88 1003.60 1003.28 1003.00 1002.76 1002.48 1002.24 1002.00 1001.84 1001.68 1001.48 1001.32
1015.92 1015.84 1015.72 1015.60 1015.44 1015.32 1015.20 1015.08 1014.92 1014.80 1014.64 1014.52 1014.36 1014.20 1014.04 1013.88 1013.72 1013.56 1013.44 1013.28 1013.12 1012.92 1012.72 1012.56 1012.32 1012.08 1011.88 1011.60 1011.44 1011.20 1011.00 1010.80 1010.60 1010.32 1010.08 1009.84 1009.60 1009.36 1009.12 1008.92 1008.72 1008.48 1008.24 1007.96 1007.60 1007.32 1007.04 1006.72 1006.48 1006.28 1006.04 1005.80 1005.48 1005.16 1004.88 1004.44 1004.08 1003.80 1003.52 1003.20 1002.92 1002.68 1002.48 1002.28 1002.00 1001.80 1001.60 1001.44 1001.24
1016.00 1015.88 1015.76 1015.64 1015.48 1015.40 1015.28 1015.12 1015.00 1014.88 1014.72 1014.60 1014.44 1014.28 1014.12 1013.96 1013.80 1013.68 1013.52 1013.36 1013.16 1012.96 1012.76 1012.60 1012.36 1012.16 1011.96 1011.72 1011.48 1011.28 1011.08 1010.88 1010.60 1010.40 1010.16 1009.92 1009.72 1009.44 1009.20 1008.96 1008.72 1008.44 1008.20 1007.92 1007.60 1007.28 1007.00 1006.68 1006.44 1006.16 1005.92 1005.72 1005.44 1005.16 1004.80 1004.44 1004.04 1003.72 1003.44 1003.12 1002.88 1002.64 1002.44 1002.24 1002.00 1001.80 1001.60 1001.40 1001.16
1016.04 1015.92 1015.76 1015.68 1015.56 1015.44 1015.28 1015.16 1015.04 1014.92 1014.80 1014.68 1014.52 1014.32 1014.16 1014.04 1013.88 1013.72 1013.60 1013.44 1013.24 1013.04 1012.88 1012.64 1012.44 1012.24 1012.04 1011.84 1011.60 1011.32 1011.08 1010.88 1010.68 1010.44 1010.20 1009.96 1009.68 1009.44 1009.24 1009.00 1008.72 1008.44 1008.16 1007.88 1007.56 1007.24 1006.92 1006.64 1006.36 1006.08 1005.84 1005.60 1005.40 1005.08 1004.72 1004.40 1004.00 1003.68 1003.36 1003.08 1002.84 1002.60 1002.40 1002.20 1002.04 1001.88 1001.64 1001.44 1001.16
1016.08 1015.96 1015.88 1015.72 1015.60 1015.48 1015.36 1015.28 1015.16 1015.00 1014.88 1014.72 1014.60 1014.40 1014.28 1014.16 1014.00 1013.80 1013.64 1013.48 1013.32 1013.16 1013.00 1012.76 1012.52 1012.32 1012.12 1011.88 1011.64 1011.36 1011.12 1010.92 1010.72 1010.48 1010.24 1010.00 1009.72 1009.44 1009.16 1008.96 1008.72 1008.44 1008.16 1007.84 1007.48 1007.16 1006.88 1006.60 1006.32 1006.04 1005.76 1005.48 1005.28 1005.00 1004.64 1004.28 1003.92 1003.60 1003.28 1003.00 1002.76 1002.60 1002.44 1002.24 1002.08 1001.88 1001.68 1001.44 1001.24
1016.12 1016.00 1015.88 1015.76 1015.68 1015.60 1015.44 1015.28 1015.16 1015.04 1014.96 1014.80 1014.64 1014.44 1014.32 1014.20 1014.08 1013.92 1013.72 1013.60 1013.40 1013.16 1013.00 1012.84 1012.60 1012.36 1012.12 1011.92 1011.68 1011.44 1011.16 1010.92 1010.72 1010.48 1010.24 1010.00 1009.68 1009.44 1009.16 1008.96 1008.68 1008.36 1008.04 1007.76 1007.44 1007.16 1006.84 1006.56 1006.28 1005.96 1005.68 1005.44 1005.12 1004.80 1004.48 1004.16 1003.80 1003.48 1003.24 1003.00 1002.76 1002.60 1002.44 1002.24 1002.08 1001.88 1001.72 1001.52 1001.28
1016.16 1016.08 1016.00 1015.84 1015.72 1015.64 1015.52 1015.36 1015.20 1015.08 1015.00 1014.88 1014.72 1014.60 1014.44 1014.28 1014.12 1014.00 1013.84 1013.64 1013.40 1013.16 1012.96 1012.76 1012.60 1012.32 1012.08 1011.88 1011.64 1011.44 1011.20 1010.96 1010.72 1010.44 1010.24 1010.00 1009.72 1009.44 1009.16 1008.88 1008.60 1008.32 1008.00 1007.72 1007.44 1007.12 1006.80 1006.52 1006.20 1005.88 1005.60 1005.28 1005.00 1004.68 1004.32 1004.00 1003.72 1003.44 1003.16 1002.96 1002.72 1002.60 1002.44 1002.28 1002.12 1001.96 1001.84 1001.64 1001.44
1016.20 1016.16 1016.04 1015.92 1015.80 1015.64 1015.56 1015.44 1015.28 1015.16 1015.04 1014.88 1014.76 1014.64 1014.44 1014.32 1014.16 1013.96 1013.80 1013.64 1013.44 1013.20 1013.00 1012.76 1012.60 1012.36 1012.16 1011.88 1011.64 1011.40 1011.16 1010.96 1010.68 1010.44 1010.16 1010.00 1009.72 1009.44 1009.12 1008.84 1008.56 1008.24 1007.92 1007.60 1007.32 1007.04 1006.72 1006.44 1006.16 1005.80 1005.48 1005.20 1004.88 1004.56 1004.24 1003.96 1003.68 1003.40 1003.12 1002.88 1002.72 1002.52 1002.40 1002.32 1002.16 1002.08 1001.96 1001.76 1001.60
1016.24 1016.16 1016.08 1015.96 1015.88 1015.72 1015.60 1015.44 1015.32 1015.20 1015.08 1014.92 1014.76 1014.64 1014.48 1014.32 1014.16 1013.92 1013.72 1013.60 1013.40 1013.24 1013.04 1012.88 1012.64 1012.44 1012.20 1012.00 1011.72 1011.44 1011.16 1010.88 1010.64 1010.44 1010.16 1009.92 1009.64 1009.36 1009.08 1008.76 1008.48 1008.20 1007.88 1007.60 1007.28 1007.00 1006.68 1006.36 1006.08 1005.72 1005.44 1005.16 1004.84 1004.52 1004.20 1003.92 1003.64 1003.40 1003.16 1002.92 1002.72 1002.52 1002.36 1002.24 1002.16 1002.00 1001.92 1001.80 1001.60
1016.32 1016.20 1016.12 1016.00 1015.92 1015.76 1015.64 1015.52 1015.40 1015.24 1015.12 1014.96 1014.76 1014.60 1014.44 1014.32 1014.20 1014.00 1013.76 1013.56 1013.32 1013.16 1013.00 1012.80 1012.60 1012.40 1012.16 1011.96 1011.76 1011.48 1011.20 1010.88 1010.60 1010.40 1010.16 1009.88 1009.60 1009.28 1009.00 1008.72 1008.40 1008.12 1007.84 1007.52 1007.24 1006.92 1006.64 1006.32 1006.00 1005.68 1005.36 1005.12 1004.84 1004.52 1004.24 1003.96 1003.68 1003.44 1003.20 1002.96 1002.72 1002.56 1002.36 1002.20 1002.08 1001.96 1001.84 1001.72 1001.60
1016.36 1016.28 1016.16 1016.04 1015.96 1015.84 1015.72 1015.56 1015.40 1015.28 1015.12 1014.96 1014.76 1014.60 1014.44 1014.28 1014.16 1014.00 1013.80 1013.52 1013.28 1013.12 1012.92 1012.72 1012.52 1012.32 1012.12 1011.88 1011.64 1011.44 1011.20 1010.92 1010.60 1010.32 1010.08 1009.84 1009.60 1009.24 1008.92 1008.60 1008.32 1008.00 1007.72 1007.44 1007.16 1006.88 1006.60 1006.24 1005.92 1005.64 1005.32 1005.04 1004.80 1004.56 1004.28 1004.00 1003.72 1003.48 1003.28 1003.00 1002.80 1002.60 1002.40 1002.20 1002.00 1001.88 1001.72 1001.64 1001.48
1016.40 1016.32 1016.24 1016.12 1016.00 1015.88 1015.72 1015.56 1015.44 1015.28 1015.08 1014.96 1014.84 1014.64 1014.44 1014.28 1014.08 1013.92 1013.72 1013.48 1013.28 1013.04 1012.88 1012.68 1012.48 1012.28 1012.04 1011.80 1011.60 1011.32 1011.12 1010.88 1010.60 1010.32 1010.00 1009.76 1009.52 1009.20 1008.88 1008.52 1008.24 1007.96 1007.68 1007.40 1007.12 1006.76 1006.48 1006.16 1005.88 1005.60 1005.32 1005.04 1004.76 1004.56 1004.32 1004.00 1003.76 1003.52 1003.28 1003.04 1002.80 1002.60 1002.36 1002.16 1001.96 1001.76 1001.64 1001.52 1001.32
1016.44 1016.36 1016.28 1016.16 1016.00 1015.88 1015.72 1015.60 1015.44 1015.28 1015.12 1014.92 1014.80 1014.64 1014.44 1014.32 1014.08 1013.88 1013.64 1013.48 1013.28 1013.08 1012.84 1012.64 1012.44 1012.24 1012.00 1011.76 1011.52 1011.28 1011.00 1010.80 1010.60 1010.32 1010.00 1009.68 1009.44 1009.20 1008.88 1008.48 1008.16 1007.88 1007.60 1007.32 1007.00 1006.72 1006.40 1006.12 1005.80 1005.52 1005.28 1005.04 1004.76 1004.52 1004.28 1004.00 1003.76 1003.52 1003.28 1003.04 1002.76 1002.52 1002.32 1002.12 1001.88 1001.68 1001.52 1001.36 1001.16
1016.44 1016.32 1016.28 1016.16 1016.00 1015.88 1015.72 1015.60 1015.44 1015.32 1015.16 1014.92 1014.76 1014.60 1014.40 1014.24 1014.00 1013.80 1013.60 1013.48 1013.32 1013.16 1012.92 1012.64 1012.44 1012.16 1011.96 1011.72 1011.44 1011.16 1010.88 1010.68 1010.48 1010.24 1009.96 1009.64 1009.36 1009.12 1008.80 1008.48 1008.12 1007.80 1007.56 1007.28 1006.92 1006.60 1006.32 1006.00 1005.72 1005.44 1005.24 1005.00 1004.72 1004.52 1004.28 1004.00 1003.72 1003.48 1003.24 1003.00 1002.72 1002.48 1002.24 1002.00 1001.80 1001.60 1001.40 1001.20 1001.00
1016.44 1016.32 1016.24 1016.16 1016.00 1015.88 1015.72 1015.56 1015.44 1015.28 1015.16 1014.96 1014.72 1014.56 1014.36 1014.20 1014.00 1013.76 1013.56 1013.44 1013.28 1013.16 1012.88 1012.64 1012.36 1012.12 1011.88 1011.60 1011.36 1011.08 1010.76 1010.56 1010.36 1010.16 1009.88 1009.60 1009.28 1009.00 1008.72 1008.44 1008.08 1007.76 1007.48 1007.20 1006.88 1006.52 1006.24 1005.96 1005.68 1005.40 1005.16 1004.96 1004.72 1004.48 1004.28 1004.00 1003.72 1003.44 1003.20 1002.96 1002.72 1002.44 1002.12 1001.88 1001.68 1001.48 1001.28 1001.04 1000.84
1016.40 1016.32 1016.20 1016.08 1016.00 1015.88 1015.72 1015.52 1015.36 1015.20 1015.04 1014.92 1014.76 1014.56 1014.32 1014.12 1013.92 1013.72 1013.56 1013.36 1013.24 1013.04 1012.84 1012.56 1012.28 1012.00 1011.84 1011.60 1011.36 1011.08 1010.72 1010.44 1010.20 1010.00 1009.72 1009.48 1009.16 1008.92 1008.64 1008.36 1008.00 1007.72 1007.40 1007.08 1006.76 1006.44 1006.16 1005.88 1005.60 1005.36 1005.16 1004.92 1004.72 1004.44 1004.24 1004.00 1003.72 1003.40 1003.16 1002.92 1002.68 1002.36 1002.00 1001.72 1001.48 1001.32 1001.16 1000.92 1000.72
Thickness
5637 5636 5636 5635 5634 5634 5633 5632 5632 5631 5631 5629 5628 5627 5627 5626 5625 5624 5623 5623 5622 5621 5621 5620 5619 5619 5618 5617 5616 5615 5615 5614 5613 5613 5612 5611 5610 5609 5608 5608 5607 5607 5606 5605 5605 5604 5604 5603 5603 5602 5603 5603 5603 5603 5603 5603 5602 5602 5601 5601 5601 5600 5600 5600 5599 5599 5599 5598 5597
5633 5632 5631 5630 5630 5629 5629 5628 5627 5626 5625 5624 5623 5622 5621 5621 5620 5619 5618 5617 5616 5616 5615 5615 5614 5613 5612 5612 5611 5610 5610 5609 5608 5608 5607 5606 5605 5604 5603 5602 5601 5601 5600 5600 5599 5598 5597 5597 5596 5596 5596 5597 5597 5596 5597 5596 5596 5596 5596 5595 5595 5595 5594 5594 5594 5594 5594 5594 5592
5628 5627 5627 5626 5625 5625 5624 5623 5622 5621 5620 5620 5618 5617 5617 5616 5615 5614 5613 5612 5611 5611 5610 5609 5609 5608 5608 5606 5606 5605 5604 5604 5603 5602 5602 5600 5600 5599 5598 5597 5596 5596 5595 5594 5593 5592 5592 5591 5590 5590 5590 5591 5590 5590 5590 5590 5590 5589 5589 5589 5589 5589 5588 5588 5589 5589 5588 5588 5587
5624 5623 5622 5621 5620 5619 5618 5618 5617 5616 5616 5615 5614 5613 5612 5612 5610 5610 5609 5608 5607 5606 5605 5604 5603 5603 5603 5602 5601 5600 5599 5598 5597 5597 5596 5595 5594 5594 5592 5591 5590 5590 5589 5588 5587 5587 5586 5585 5584 5584 5584 5584 5584 5584 5584 5584 5583 5583 5582 5582 5582 5582 5582 5582 5582 5582 5582 5583 5582
5620 5619 5618 5617 5616 5615 5615 5614 5613 5612 5612 5611 5610 5609 5608 5607 5606 5605 5604 5604 5602 5601 5600 5599 5598 5597 5597 5596 5595 5594 5593 5592 5591 5590 5590 5589 5587 5587 5586 5585 5584 5583 5583 5582 5581 5580 5580 5579 5579 5578 5579 5578 5578 5578 5578 5577 5577 5577 5576 5576 5576 5575 5576 5576 5575 5576 5576 5576 5576
5616 5615 5614 5613 5612 5611 5611 5610 5609 5608 5607 5607 5605 5604 5603 5603 5602 5601 5599 5598 5597 5596 5595 5594 5593 5592 5591 5590 5590 5588 5587 5586 5585 5584 5583 5582 5581 5580 5579 5579 5577 5576 5576 5575 5574 5573 5573 5572 5572 5572 5572 5572 5573 5572 5571 5571 5570 5569 5569 5569 5570 5570 5570 5570 5569 5569 5569 5570 5570
5611 5611 5610 5609 5608 5606 5606 5605 5605 5603 5602 5602 5600 5599 5598 5597 5596 5595 5594 5593 5592 5591 5590 5589 5588 5586 5585 5585 5583 5582 5582 5580 5579 5578 5577 5575 5575 5574 5572 5571 5570 5570 5569 5568 5567 5567 5566 5565 5565 5565 5565 5565 5566 5566 5565 5564 5563 5562 5563 5563 5563 5564 5564 5563 5564 5563 5563 5563 5563
5607 5606 5605 5603 5603 5602 5601 5600 5599 5598 5597 5596 5595 5593 5592 5591 5590 5590 5588 5588 5586 5585 5584 5583 5582 5581 5579 5578 5577 5576 5575 5575 5574 5572 5571 5569 5569 5567 5566 5565 5564 5563 5562 5561 5560 5559 5559 5558 5558 5558 5558 5558 5558 5558 5558 5557 5556 5556 5556 5556 5557 5558 5557 5557 5557 5557 5556 5556 5556
5603 5601 5600 5599 5598 5596 5596 5594 5593 5592 5591 5589 5589 5588 5586 5585 5585 5584 5583 5582 5581 5579 5578 5577 5576 5575 5573 5573 5571 5570 5569 5569 5567 5566 5565 5563 5562 5561 5560 5559 5558 5557 5556 5555 5554 5553 5552 5551 5551 5551 5551 5550 5550 5550 5550 5550 5550 5550 5550 5550 5551 5551 5551 5551 5551 5550 5550 5549 5549
5597 5596 5595 5594 5593 5592 5591 5589 5588 5587 5585 5584 5583 5582 5581 5580 5579 5578 5577 5576 5575 5574 5572 5571 5570 5569 5568 5567 5566 5565 5563 5562 5561 5560 5558 5557 5556 5555 5554 5553 5551 5550 5549 5548 5547 5546 5545 5545 5544 5544 5544 5543 5542 5542 5543 5542 5542 5543 5543 5543 5544 5545 5545 5545 5544 5544 5544 5544 5543
5592 5591 5590 5589 5587 5586 5585 5584 5583 5582 5580 5579 5578 5577 5576 5574 5573 5572 5571 5570 5569 5568 5567 5565 5564 5563 5562 5561 5559 5559 5557 5556 5554 5553 5552 5551 5549 5548 5547 5545 5545 5544 5543 5542 5540 5539 5539 5538 5537 5537 5536 5536 5535 5536 5536 5536 5535 5536 5536 5536 5537 5538 5539 5538 5538 5538 5538 5538 5538
5587 5585 5585 5583 5582 5581 5580 5578 5578 5576 5575 5573 5572 5571 5570 5569 5567 5566 5565 5564 5563 5562 5561 5560 5558 5557 5556 5554 5553 5552 5550 5549 5548 5547 5546 5545 5543 5542 5541 5539 5538 5537 5536 5534 5533 5532 5531 5531 5530 5530 5530 5530 5529 5529 5529 5529 5529 5529 5529 5530 5530 5531 5532 5532 5532 5531 5532 5532 5532
5582 5581 5579 5578 5576 5576 5575 5573 5572 5571 5570 5568 5567 5565 5565 5563 5562 5561 5560 5558 5557 5556 5555 5554 5552 5550 5549 5548 5546 5545 5544 5543 5542 5540 5539 5537 5536 5535 5534 5533 5532 5530 5529 5527 5526 5525 5524 5523 5522 5522 5522 5523 5522 5522 5522 5521 5522 5522 5522 5523 5524 5524 5525 5525 5526 5525 5526 5526 5526
5576 5575 5574 5572 5570 5569 5569 5567 5566 5565 5564 5562 5561 5559 5558 5557 5556 5554 5553 5552 5551 5549 5548 5547 5545 5544 5542 5540 5540 5538 5537 5536 5535 5534 5532 5531 5529 5528 5527 5526 5524 5523 5522 5520 5518 5517 5516 5515 5515 5514 5515 5515 5515 5515 5514 5514 5514 5515 5515 5515 5516 5517 5518 5518 5519 5519 5519 5520 5520
5570 5569 5568 5566 5565 5563 5562 5561 5560 5559 5557 5556 5554 5553 5552 5551 5549 5547 5546 5545 5544 5542 5541 5540 5539 5537 5535 5533 5532 5531 5530 5528 5527 5527 5526 5524 5523 5521 5520 5519 5517 5515 5514 5513 5511 5510 5508 5507 5507 5507 5507 5507 5507 5507 5507 5507 5507 5507 5508 5509 5509 5510 5511 5512 5512 5512 5512 5513 5513
5564 5563 5562 5560 5558 5557 5555 5554 5553 5552 5550 5549 5547 5546 5545 5544 5542 5540 5539 5538 5537 5535 5534 5533 5531 5530 5529 5527 5525 5524 5523 5522 5520 5519 5518 5517 5516 5514 5513 5511 5510 5508 5507 5506 5504 5503 5502 5500 5500 5500 5499 5499 5499 5499 5500 5500 5500 5501 5501 5502 5502 5503 5504 5504 5505 5506 5506 5506 5506
5558 5557 5555 5554 5552 5550 5549 5547 5546 5545 5544 5542 5541 5539 5538 5536 5535 5534 5532 5530 5529 5528 5527 5525 5524 5523 5522 5520 5518 5516 5515 5515 5513 5512 5510 5509 5508 5506 5505 5504 5502 5501 5500 5498 5497 5496 5495 5494 5493 5492 5491 5491 5492 5491 5492 5493 5494 5494 5495 5495 5496 5497 5497 5498 5498 5499 5499 5499 5500
5552 5551 5549 5548 5546 5544 5542 5541 5539 5538 5536 5535 5534 5532 5531 5529 5528 5526 5525 5523 5522 5521 5520 5518 5516 5515 5513 5512 5510 5508 5507 5506 5505 5503 5501 5500 5499 5498 5497 5495 5494 5493 5492 5491 5490 5489 5488 5487 5486 5485 5484 5484 5484 5484 5485 5486 5487 5488 5489 5490 5490 5491 5491 5491 5491 5492 5491 5492 5493
5546 5544 5542 5541 5540 5538 5536 5535 5533 5531 5530 5529 5527 5525 5523 5522 5521 5519 5518 5516 5514 5512 5512 5510 5509 5507 5505 5504 5502 5500 5498 5497 5496 5495 5493 5491 5491 5490 5489 5488 5487 5486 5485 5484 5483 5482 5481 5480 5479 5479 5478 5478 5478 5479 5479 5480 5481 5482 5483 5483 5484 5485 5485 5485 5485 5485 5486 5486 5486
5539 5538 5536 5534 5533 5531 5529 5528 5526 5525 5523 5521 5520 5518 5517 5515 5513 5512 5511 5508 5507 5505 5503 5502 5500 5499 5497 5495 5493 5492 5490 5488 5487 5486 5485 5483 5483 5482 5481 5480 5480 5479 5478 5477 5476 5475 5474 5473 5472 5472 5472 5472 5473 5473 5473 5475 5475 5477 5477 5477 5478 5479 5479 5479 5479 5479 5479 5480 5480
5533 5531 5529 5528 5525 5524 5522 5520 5519 5517 5516 5514 5513 5511 5510 5508 5506 5504 5502 5500 5498 5497 5495 5493 5491 5490 5488 5487 5485 5484 5483 5481 5479 5478 5477 5476 5475 5474 5473 5473 5473 5473 5472 5471 5470 5469 5468 5467 5467 5466 5466 5466 5467 5468 5468 5469 5471 5471 5472 5473 5473 5473 5474 5474 5473 5474 5474 5475 5475
5526 5524 5523 5521 5519 5517 5516 5514 5512 5511 5509 5507 5505 5504 5502 5500 5499 5496 5494 5492 5490 5488 5486 5485 5482 5481 5479 5478 5477 5475 5475 5473 5472 5470 5469 5469 5468 5467 5466 5465 5465 5466 5465 5464 5463 5462 5462 5461 5461 5460 5461 5461 5462 5462 5463 5464 5465 5467 5467 5468 5468 5469 5469 5469 5468 5469 5469 5469 5469
5520 5518 5517 5515 5513 5511 5510 5508 5506 5504 5502 5500 5499 5497 5495 5493 5490 5488 5486 5484 5482 5480 5478 5476 5474 5472 5471 5469 5468 5467 5466 5466 5465 5464 5462 5462 5461 5461 5459 5458 5458 5458 5458 5457 5456 5455 5455 5454 5455 5454 5455 5455 5456 5457 5458 5458 5460 5461 5462 5463 5464 5464 5464 5464 5463 5463 5464 5463 5464
5514 5513 5511 5509 5507 5505 5503 5501 5499 5497 5495 5493 5491 5489 5486 5485 5483 5480 5478 5476 5474 5472 5470 5468 5466 5464 5463 5462 5460 5459 5458 5458 5457 5457 5456 5454 5453 5453 5453 5452 5451 5451 5451 5450 5449 5448 5447 5447 5447 5448 5448 5449 5450 5451 5452 5453 5454 5455 5456 5457 5458 5459 5459 5460 5459 5459 5459 5459 5458
5509 5506 5504 5502 5500 5498 5496 5494 5492 5490 5488 5485 5483 5481 5478 5476 5475 5473 5470 5468 5465 5464 5461 5460 5458 5457 5455 5454 5453 5451 5450 5449 5449 5449 5449 5448 5447 5446 5445 5445 5445 5445 5444 5443 5443 5442 5441 5440 5440 5440 5441 5442 5444 5445 5446 5447 5449 5450 5450 5451 5452 5453 5454 5455 5455 5454 5454 5454 5454
5502 5500 5498 5495 5493 5491 5489 5487 5484 5482 5480 5477 5475 5473 5470 5468 5466 5464 5462 5460 5458 5455 5453 5452 5451 5450 5448 5447 5445 5444 5443 5442 5442 5441 5441 5441 5441 5440 5439 5439 5438 5437 5438 5438 5437 5437 5436 5436 5435 5434 5434 5435 5436 5438 5440 5442 5443 5444 5445 5446 5446 5447 5448 5449 5449 5450 5449 5449 5449
5496 5493 5490 5488 5486 5483 5481 5479 5476 5474 5472 5469 5467 5464 5462 5460 5458 5456 5454 5452 5450 5448 5446 5444 5443 5442 5441 5440 5439 5437 5437 5435 5435 5435 5434 5434 5434 5433 5433 5433 5432 5431 5431 5431 5432 5431 5431 5431 5431 5430 5429 5428 5429 5430 5432 5434 5437 5438 5439 5440 5441 5441 5441 5442 5442 5443 5443 5444 5444
5488 5486 5483 5481 5478 5475 5473 5471 5469 5466 5463 5462 5458 5456 5454 5452 5449 5447 5445 5444 5442 5440 5438 5437 5436 5434 5433 5432 5432 5431 5430 5430 5429 5428 5428 5428 5427 5427 5427 5427 5427 5426 5425 5425 5426 5426 5426 5426 5426 5425 5424 5423 5423 5424 5425 5428 5430 5431 5433 5434 5435 5435 5435 5434 5435 5435 5436 5437 5437
5481 5478 5476 5473 5471 5468 5466 5463 5461 5458 5455 5453 5450 5448 5446 5444 5442 5440 5438 5436 5434 5433 5431 5430 5429 5428 5427 5426 5426 5425 5425 5424 5423 5422 5422 5423 5422 5422 5422 5422 5422 5421 5421 5420 5420 5420 5420 5420 5420 5420 5419 5418 5417 5418 5419 5421 5423 5425 5426 5427 5427 5427 5427 5427 5427 5428 5428 5430 5431
5474 5471 5469 5466 5463 5460 5458 5455 5452 5450 5447 5445 5442 5441 5438 5436 5434 5432 5431 5429 5427 5426 5424 5423 5422 5421 5421 5419 5419 5419 5419 5418 5417 5417 5417 5417 5418 5417 5417 5417 5417 5417 5416 5416 5416 5416 5416 5415 5415 5414 5414 5414 5413 5413 5414 5416 5416 5418 5419 5420 5420 5420 5420 5420 5420 5420 5420 5422 5423
5466 5464 5461 5459 5456 5453 5450 5447 5444 5442 5440 5437 5435 5433 5431 5429 5426 5425 5423 5422 5421 5420 5418 5417 5416 5416 5416 5414 5414 5414 5414 5413 5413 5412 5412 5412 5413 5412 5412 5412 5412 5412 5411 5411 5411 5410 5410 5410 5410 5409 5409 5409 5408 5408 5409 5410 5411 5412 5413 5413 5413 5413 5412 5412 5412 5412 5413 5414 5415
5459 5456 5453 5451 5447 5445 5442 5440 5437 5435 5432 5430 5428 5426 5424 5422 5420 5418 5416 5415 5415 5414 5413 5412 5411 5410 5410 5410 5410 5409 5409 5408 5408 5407 5407 5407 5407 5407 5408 5408 5407 5407 5406 5406 5405 5405 5405 5404 5404 5404 5404 5403 5403 5404 5404 5404 5405 5405 5406 5407 5406 5406 5405 5405 5404 5404 5405 5405 5406
5452 5448 5445 5443 5440 5437 5435 5432 5430 5428 5426 5423 5421 5419 5417 5416 5415 5412 5411 5410 5409 5409 5408 5407 5406 5405 5405 5405 5405 5405 5405 5404 5403 5403 5403 5402 5402 5402 5402 5402 5402 5402 5402 5401 5400 5399 5399 5398 5398 5398 5397 5397 5397 5398 5398 5399 5399 5400 5399 5399 5399 5399 5398 5397 5396 5396 5396 5396 5397
5444 5441 5438 5435 5432 5431 5428 5425 5423 5421 5419 5417 5416 5413 5411 5410 5409 5408 5407 5405 5404 5404 5403 5401 5401 5400 5400 5399 5399 5399 5400 5399 5399 5398 5397 5397 5397 5397 5397 5397 5397 5396 5396 5395 5394 5394 5393 5392 5392 5391 5391 5391 5391 5391 5391 5391 5392 5392 5392 5392 5391 5391 5391 5390 5389 5388 5388 5388 5388
5436 5434 5431 5428 5426 5423 5421 5419 5417 5415 5413 5412 5410 5409 5406 5405 5403 5402 5402 5401 5400 5399 5398 5397 5397 5396 5396 5394 5394 5394 5394 5394 5394 5393 5392 5392 5392 5392 5392 5392 5392 5392 5391 5390 5389 5388 5387 5387 5386 5385 5384 5384 5384 5383 5384 5384 5384 5384 5384 5384 5384 5383 5383 5382 5382 5381 5381 5381 5381
5429 5426 5424 5421 5419 5417 5415 5413 5411 5409 5408 5406 5405 5404 5402 5400 5398 5397 5396 5396 5396 5396 5395 5393 5393 5392 5391 5391 5390 5389 5389 5388 5388 5388 5387 5386 5386 5387 5387 5387 5386 5386 5385 5385 5382 5382 5381 5380 5379 5378 5377 5377 5376 5376 5376 5376 5376 5376 5376 5376 5375 5375 5375 5375 5375 5375 5374 5374 5374
5422 5419 5417 5415 5413 5410 5409 5407 5406 5404 5403 5401 5399 5398 5397 5396 5395 5393 5391 5391 5391 5391 5390 5389 5389 5388 5388 5387 5387 5385 5384 5383 5383 5382 5382 5381 5381 5381 5381 5381 5381 5380 5379 5378 5377 5375 5374 5373 5372 5371 5370 5369 5368 5368 5368 5368 5368 5368 5368 5368 5368 5368 5367 5367 5367 5367 5367 5367 5367
5415 5412 5411 5409 5407 5405 5403 5401 5400 5398 5397 5396 5395 5392 5391 5390 5390 5389 5387 5386 5386 5386 5386 5385 5384 5383 5383 5382 5382 5381 5380 5378 5377 5377 5376 5375 5374 5374 5374 5375 5374 5374 5373 5372 5371 5369 5368 5367 5366 5364 5363 5361 5361 5360 5360 5360 5360 5360 5360 5360 5361 5360 5361 5360 5360 5361 5361 5361 5362
5409 5407 5405 5402 5401 5400 5398 5396 5395 5393 5392 5391 5390 5388 5387 5385 5385 5384 5383 5382 5381 5380 5380 5380 5379 5378 5378 5377 5377 5377 5376 5374 5373 5371 5370 5369 5368 5367 5367 5367 5367 5366 5366 5366 5364 5363 5362 5361 5359 5357 5356 5354 5353 5353 5352 5353 5353 5353 5353 5353 5353 5354 5354 5354 5354 5354 5354 5355 5355
5403 5401 5399 5397 5395 5394 5393 5391 5390 5388 5386 5386 5386 5384 5382 5381 5380 5380 5379 5378 5376 5375 5374 5375 5375 5373 5372 5372 5371 5371 5371 5370 5368 5366 5365 5364 5362 5361 5360 5360 5360 5359 5359 5358 5357 5356 5355 5354 5352 5351 5349 5348 5346 5346 5345 5346 5345 5345 5346 5346 5346 5346 5347 5348 5348 5349 5348 5349 5350
5398 5396 5394 5392 5390 5389 5388 5387 5386 5384 5382 5380 5380 5379 5378 5377 5376 5375 5374 5373 5372 5370 5369 5370 5369 5368 5367 5366 5365 5365 5364 5364 5363 5361 5360 5359 5356 5355 5354 5353 5353 5352 5352 5351 5351 5350 5349 5347 5345 5344 5342 5340 5339 5338 5338 5338 5338 5338 5338 5338 5339 5339 5340 5341 5342 5343 5343 5343 5344